User: anonymous   Login
Location: Unspecified
(0.0000°N, 0.0000°E)
Time: 00:15:34
(UTC+00:00)
Language:

KKS-1 - Orbit

View from above orbital plane
View from above orbital plane
View from above satellite
View from above satellite

Ground track
Ground track

The orbit data is extracted from the following two-line orbital elements,

1 33499U 09002H   17328.62352217 +.00000220 +00000-0 +40629-4 0  9997
2 33499 098.3444 138.8685 0008430 217.7675 142.2942 14.75263919474591
Epoch (UTC): 24 November 2017 14:57:52
Eccentricity: 0.0008430
inclination: 98.3444°
perigee height: 638 km
apogee height: 650 km
right ascension of ascending node: 138.8685°
argument of perigee: 217.7675°
revolutions per day: 14.75263919
mean anomaly at epoch: 142.2942°
orbit number at epoch: 47459

The dashed part of the orbit path shows where the satellite is in the earth's shadow,  

DLR